ATLAS D DEB

Satellite information

Favourite Embed

Satellite Type and Status

DEBRISIN ORBIT

Key statistics

Satellite ATLAS D DEB at a glance.

Uptime

21544

Days in orbit

Revolutions

≈ 13.9

Per day

Orbit

SSO

Sun Synchronous Orbit

Inclination

144.3

Latest

Satellite identification and parameters

Extended collection of information and parameters for ATLAS D DEB.

Object identification

Identified? True

Debris? True

Object name: ATLAS D DEB

International designator: 1966-063D

Object number (NORAD): 2329

Object ID (CCSDS): 2329

Country: UNITED STATES OF AMERICA (US)

Current information (Y/N): Y

RCS size: MEDIUM

Orbital parameters

Period: 103.446 minutes

Inclination: 144.2838 deg

SMA: 7299.652 km

Apoapsis: 938.108 km

Periapsis: 904.927 km

RAAN: 150.6729 deg

Eccentricy: 0.0022728

Argument of periapsis: 278.6763 deg

Mean anomaly: 142.9031 deg

Mean motion: 13.9203285 rev/day

Mean motion (dot): 0.00000698 rev/day2

B* drag term: 0.00033469 1/REarth

Two-line elements (TLE)

Creation date: July 7, 2025, 5:18 a.m.

Reference frame: TEME

Reference center: EARTH

Epoch: July 6, 2025, 7:18 p.m. UTC

TLE line 0: 0 ATLAS D DEB

TLE line 1: 1 02329U 66063D 25187.80464873 .00000698 00000-0 33469-3 0 9991

TLE line 2: 2 02329 144.2838 150.6729 0022728 278.6763 142.9031 13.92032850974102

Live tracking on map

Real-time ground track for satellite ATLAS D DEB.

In-orbit conjunctions

A list of the most updated potential collisions computed for object ATLAS D DEB.

Target Orbit TCA Probability of collision Miss distance Type
METEOR 2-17 DEB LEO 2024-10-01 15:05:40 0.0001262778 153.0 (m) DEBRIS

Associated space launch

The OV1 (Orbiting Vehicle 1) were small research satellite to be launched piggy back on Atlas ICBM test flights. They consisted in general of the OV1 satellite and the OV1-PM propulsion module (or upper stage) to reach orbit.

ATLAS D DEB was lifted into orbit during the mission ‘Atlas D | OV1-7’, on board a Atlas D space rocket.

The launch took place on July 14, 1966, 2:10 a.m. from 576B3.

For more information about the launch, click the button.

Launch to space Atlas D | OV1-7
Atlas D | OV1-7

Agency: N/A

Status: Launch Successful

Launch date: July 14, 1966, 2:10 a.m. UTC

Rocket: Atlas D

Launch pad: 576B3

Location: Vandenberg SFB, CA, USA

...

Latest news about this satellite

There are no fresh news available about this satellite. Check back as we update our databases every day.


Newsletter sign-up

Weekly statistics, charts and insights to help you stay on top of the space industry.